RH
14 16 17 18 19 20 22 24 26 29 31 34 37 40 42 44 46 49 52 57 64 70 76 80 85 91 96 98 98 99 97 92 88 82 74 69 65 61 57 53 50 50 50 49 49 50 50 50 50 49 48 45 44 43 42 40 37 33 30 27 25 25 25 24 22 21 22 21 22 23 23 22 22 22 22 20 18 17 17 18 20 23 25 27 29
18 20 21 22 23 25 28 32 35 38 42 45 48 49 50 52 54 59 64 70 76 80 85 88 90 91 92 93 93 93 91 85 80 76 71 66 62 59 58 60 62 63 64 62 60 59 59 59 58 58 57 56 55 54 52 51 50 47 44 40 38 35 33 33 30 25 23 22 21 21 22 24 23 21 21 21 21 19 18 17 17 18 20 22 24
22 23 24 25 27 30 35 40 45 49 52 53 54 56 58 61 64 70 75 80 84 85 87 88 87 86 85 84 84 85 86 82 75 71 69 67 66 66 66 66 65 62 60 57 55 54 53 52 51 50 50 49 48 48 48 48 47 47 46 45 43 41 40 41 39 34 29 27 24 22 22 25 28 29 26 23 22 22 22 21 19 19 19 20 21
23 24 25 27 31 36 41 46 52 56 58 58 60 63 65 69 74 79 82 83 83 83 83 83 85 87 89 88 84 80 79 80 79 77 75 73 70 67 64 60 56 54 52 51 51 50 48 47 45 43 42 41 40 39 39 39 39 40 40 40 40 39 39 39 40 38 35 32 29 26 25 25 29 33 33 29 26 25 24 24 25 25 24 23 22
25 26 28 31 36 42 47 52 57 60 62 64 66 68 71 74 76 78 79 80 81 82 84 86 89 92 92 92 89 87 87 89 89 87 83 76 69 64 61 59 57 54 53 52 51 50 50 48 46 43 41 39 37 36 35 34 34 34 34 34 34 34 34 34 35 36 35 34 32 30 30 28 28 30 33 34 34 32 29 27 27 27 28 28 27
30 32 34 38 44 49 54 58 62 64 66 67 69 71 73 75 76 77 78 79 81 83 85 86 87 88 89 92 96 96 94 91 86 82 77 72 67 64 64 63 61 60 59 59 57 55 52 50 47 44 40 35 32 30 29 28 27 27 26 26 26 27 27 27 28 29 29 30 30 30 30 29 29 29 30 31 33 36 35 33 31 30 30 30 29
39 41 43 48 52 56 61 64 66 68 69 70 73 75 76 77 78 77 77 77 78 80 83 87 90 92 94 94 91 85 79 75 71 67 62 60 61 62 65 68 69 70 69 65 61 56 51 47 41 34 27 22 19 18 17 17 16 16 16 16 17 17 18 19 19 19 20 21 22 24 24 25 26 26 27 28 28 32 34 35 35 34 32 31 31
47 50 53 58 62 66 69 70 70 72 75 77 77 77 77 76 77 79 81 84 86 88 92 95 95 93 89 83 76 71 66 63 62 62 61 60 61 65 71 78 79 76 70 63 55 48 41 33 25 18 14 11 10 9 9 9 9 9 10 10 10 11 12 12 13 13 13 13 14 15 16 17 19 20 21 22 23 25 28 31 33 33 33 32 32
56 61 66 70 73 73 72 72 74 77 78 79 79 80 83 85 90 93 94 95 95 96 95 91 86 79 74 71 67 65 63 62 62 63 65 67 72 79 83 83 77 67 57 47 37 28 21 15 10 8 7 7 7 7 7 7 7 7 7 7 8 8 8 9 9 10 10 10 10 10 11 11 12 14 14 15 17 18 19 22 25 28 29 30 31
63 68 72 75 75 75 76 78 80 82 84 86 89 94 97 99 99 99 99 100 98 93 86 80 76 72 69 66 65 66 66 68 70 74 77 82 86 87 82 73 61 47 33 23 16 11 8 6 6 6 6 6 6 6 6 6 6 6 6 6 6 6 6 6 7 7 7 7 7 7 7 8 8 9 10 11 12 13 14 15 16 19 21 24 27
72 76 79 81 83 85 88 91 93 95 96 98 100 100 100 99 99 100 102 99 91 83 77 74 72 70 68 69 71 73 76 80 85 89 90 88 83 77 69 56 40 24 14 9 7 6 6 6 6 7 6 6 6 6 5 5 5 5 5 6 6 6 6 6 6 6 6 5 5 5 5 5 5 6 6 7 8 9 10 11 11 12 13 15 19
89 92 93 95 97 98 99 100 101 101 101 100 99 99 99 100 102 103 98 89 82 80 80 80 80 81 82 84 86 89 92 93 92 88 83 77 71 63 51 35 19 10 6 6 6 7 7 7 6 6 6 5 5 5 5 6 6 6 7 7 7 7 7 7 7 6 6 6 5 5 5 4 4 4 4 4 5 6 6 7 8 8 9 9 11
100 101 101 101 101 101 101 101 100 100 100 101 101 100 100 102 103 99 91 87 89 92 92 93 94 95 96 97 99 98 94 87 80 76 73 67 56 41 26 14 7 6 6 6 7 7 7 6 6 5 5 6 7 7 8 9 9 10 10 10 10 10 9 9 8 8 7 7 6 6 5 5 4 4 4 4 4 4 4 4 5 5 6 7 7
101 101 101 100 100 100 100 100 101 100 100 100 101 101 100 101 100 96 94 97 99 99 98 99 99 101 101 99 94 86 79 76 75 71 60 45 29 16 9 6 6 6 7 7 7 6 6 5 6 6 8 10 11 12 13 13 13 13 12 12 12 11 10 9 9 9 8 7 7 6 6 5 5 4 4 4 4 4 4 3 4 4 4 4 5
100 100 100 100 100 100 100 100 100 100 100 101 101 101 100 100 99 98 100 100 100 99 100 101 101 98 92 84 78 76 77 74 64 48 31 17 9 6 6 7 7 7 7 7 6 5 6 6 9 11 14 15 16 16 16 15 15 14 13 13 12 11 10 10 9 8 8 8 7 6 6 6 5 5 4 5 4 4 4 4 4 3 3 4 4
100 100 100 100 100 100 100 100 100 100 100 100 101 101 100 100 100 100 100 100 100 101 99 95 89 83 78 77 80 79 69 51 32 18 10 7 7 7 8 8 8 7 7 6 6 7 8 11 14 17 18 19 18 17 17 16 15 15 14 13 12 11 10 9 9 8 8 7 7 7 7 6 6 6 6 5 5 5 5 5 4 4 4 4 3
100 100 100 100 100 101 100 100 100 100 100 101 101 100 100 100 100 100 100 100 97 91 85 80 78 80 83 84 76 58 36 19 10 8 7 8 9 9 9 8 7 7 7 7 8 10 13 17 20 21 21 20 19 18 17 17 16 16 15 14 13 12 10 10 9 8 8 8 8 8 7 7 7 7 7 6 6 6 6 6 6 7 6 5 4
101 100 100 100 100 100 100 100 100 100 100 100 99 100 100 101 100 97 93 88 82 79 79 82 87 89 83 67 45 25 13 9 8 8 9 10 10 9 8 8 7 7 8 10 13 17 20 23 24 24 23 21 20 19 19 18 18 17 16 15 14 12 11 10 9 9 9 9 9 9 8 8 8 8 8 8 8 7 7 7 8 10 11 9 7
100 100 100 100 101 100 100 100 100 99 100 100 101 101 99 95 89 84 80 78 81 85 88 89 85 74 55 34 18 11 9 9 9 10 11 11 9 9 8 8 9 10 12 16 20 24 26 27 27 25 24 22 21 21 20 20 20 19 18 16 14 13 12 10 10 10 10 10 10 10 10 9 9 9 9 8 8 8 7 8 9 13 17 18 16
100 100 100 100 100 100 100 100 100 101 100 98 95 90 85 81 79 79 83 88 92 90 84 76 61 41 24 14 10 10 11 12 13 12 11 10 10 10 10 11 13 15 19 22 24 27 28 29 28 27 25 23 22 22 22 22 21 19 18 16 14 13 12 12 11 11 11 11 11 11 11 11 10 10 10 9 9 9 9 10 12 16 22 27 30
100 100 100 100 100 100 100 100 98 95 91 86 82 79 79 81 84 88 90 89 82 75 66 51 32 17 12 12 13 13 14 15 14 12 11 11 11 12 14 16 19 21 22 23 25 27 29 29 29 27 25 24 23 23 23 22 21 19 17 16 15 14 13 13 12 12 12 12 12 12 11 11 10 10 9 10 9 10 13 16 21 27 33 37 43
100 100 101 101 100 98 95 91 88 84 80 79 80 82 85 88 89 87 80 72 64 56 44 27 15 12 14 15 16 17 17 16 13 12 12 13 15 17 19 21 22 23 22 23 26 29 31 30 29 27 25 25 25 25 24 22 20 18 16 15 14 14 14 13 13 13 13 12 12 11 10 10 10 10 9 10 11 14 21 28 39 49 53 55 61
101 101 100 97 94 90 86 82 80 80 81 84 86 87 85 82 77 70 64 60 52 39 24 15 14 17 18 19 19 19 17 15 13 13 14 17 19 21 23 24 24 23 23 26 30 32 32 31 29 27 27 27 26 25 23 20 18 16 15 14 14 14 14 14 14 13 12 12 11 10 10 10 9 9 10 11 14 21 29 39 54 67 72 75 77
99 97 93 89 86 84 84 85 86 87 86 83 77 70 64 58 54 54 55 51 38 23 15 16 19 20 21 22 21 19 16 14 14 17 19 22 24 26 27 25 24 25 28 32 35 34 33 31 30 30 29 27 25 22 20 18 16 15 15 15 15 14 14 13 12 11 11 10 10 9 9 9 8 10 11 14 20 31 42 53 66 78 83 83 80
94 91 88 88 90 92 93 90 84 75 65 56 48 42 41 42 47 51 49 38 24 17 18 20 22 23 24 23 20 17 16 17 19 21 24 27 28 28 27 26 29 33 37 38 37 35 34 33 31 30 27 24 21 19 17 16 16 16 16 15 14 13 12 11 10 9 9 8 8 8 8 9 11 12 15 22 32 44 57 69 79 87 89 85 81
93 93 94 96 95 90 80 67 55 45 38 34 33 35 40 47 51 47 37 25 19 19 22 24 25 25 24 21 20 19 20 22 24 27 29 30 29 27 28 33 38 41 41 39 37 35 34 31 29 26 23 20 18 17 17 17 16 16 15 14 12 11 10 9 8 8 8 8 8 8 9 11 14 18 25 38 51 63 74 83 90 95 96 91 86
99 99 96 89 77 62 50 42 36 33 32 32 35 41 47 50 46 36 27 22 22 23 26 27 27 25 23 22 22 22 24 26 29 30 30 29 29 32 38 43 44 42 39 37 35 33 30 27 24 21 19 18 17 17 17 16 15 14 12 11 9 8 8 7 8 8 8 8 9 9 11 14 20 28 40 58 77 86 89 92 96 100 101 97 92
96 88 76 62 51 43 39 36 34 34 35 38 43 48 48 44 36 28 23 23 25 27 29 29 28 27 25 25 25 27 29 30 30 30 30 33 39 45 47 46 43 40 37 35 32 29 25 23 20 19 19 18 17 17 16 14 13 10 9 8 7 8 8 8 9 9 10 10 10 11 14 18 25 36 52 78 98 101 98 99 100 102 102 99 96
74 62 53 46 44 42 40 38 37 37 40 43 46 46 41 35 29 26 26 28 31 32 32 30 29 28 27 28 29 31 31 31 32 36 42 48 51 50 47 44 40 37 34 30 27 24 22 21 20 19 19 18 16 14 12 10 9 8 8 8 8 9 10 10 11 11 12 12 12 15 20 25 32 41 58 85 104 104 102 102 100 101 104 101 97
56 53 52 52 51 49 46 43 41 40 41 41 40 38 34 31 29 29 31 33 34 33 32 32 32 31 31 32 32 33 36 42 47 52 55 55 52 48 44 40 37 33 29 27 25 23 22 21 20 19 17 14 12 10 9 8 8 9 9 9 10 11 12 12 13 13 13 14 15 19 25 33 42 49 61 83 101 104 103 103 102 103 103 100 96
62 65 66 66 63 58 53 49 46 43 41 39 36 34 32 30 30 30 32 33 34 35 35 34 33 33 34 36 41 49 56 60 62 60 57 53 48 44 39 35 31 29 27 26 25 24 22 20 17 15 12 10 9 9 9 10 10 12 12 13 13 13 14 14 14 14 15 16 18 23 30 38 48 58 67 80 94 101 103 104 105 104 103 99 95
76 78 81 81 75 67 60 54 49 45 42 40 38 36 35 34 33 34 35 35 35 35 34 36 39 45 51 58 64 68 68 66 62 57 52 47 42 38 34 32 30 29 28 26 24 21 19 15 13 11 10 9 9 10 11 12 13 14 14 15 15 15 16 15 14 14 14 15 19 26 34 42 51 62 71 77 86 94 98 101 101 102 102 98 92
87 90 93 93 89 82 74 65 56 49 44 42 41 40 39 39 38 37 37 38 40 45 52 59 66 72 74 75 73 70 66 61 55 49 44 40 37 35 34 32 30 28 26 23 20 17 13 11 10 10 10 11 12 13 14 14 14 14 14 15 15 15 16 16 14 15 15 16 19 25 33 43 54 65 71 75 79 83 89 94 95 96 96 91 83
98 99 101 102 101 96 88 78 69 60 53 49 48 48 48 49 50 53 58 64 71 77 81 83 83 81 78 74 69 63 57 51 46 43 40 39 38 36 34 31 28 26 22 18 15 12 11 11 12 12 12 13 14 14 13 13 13 13 13 14 15 15 16 16 15 16 16 16 18 25 33 41 54 66 70 71 72 74 78 83 83 82 81 75 66
100 101 103 105 104 98 92 85 79 74 70 67 68 70 74 78 83 87 90 92 91 89 87 84 81 77 71 65 59 53 49 46 44 43 41 39 37 34 31 28 25 21 16 14 12 12 13 13 14 15 15 14 14 13 14 14 14 15 16 17 17 18 18 18 18 17 17 16 17 24 34 42 53 63 66 66 67 68 69 71 71 70 66 60 55
98 100 102 103 101 98 94 90 88 87 86 88 92 95 98 100 100 97 94 92 89 87 84 79 73 67 61 55 51 49 47 46 44 42 40 37 34 31 28 24 20 15 13 14 14 14 15 16 17 17 16 14 15 17 19 21 22 24 25 24 23 22 20 20 19 17 16 16 17 26 38 46 52 59 61 60 60 60 62 64 63 60 56 52 45
99 101 103 102 101 100 97 94 94 95 97 100 102 102 100 98 96 94 93 91 88 82 75 69 63 59 56 53 51 49 47 45 43 40 38 35 31 28 23 18 15 14 14 16 16 17 18 19 17 17 17 16 19 24 28 30 33 35 34 30 27 24 22 21 19 18 17 16 20 31 40 45 50 55 56 53 52 53 55 55 54 52 48 39 31
96 98 101 103 103 102 100 98 98 98 99 99 98 97 97 97 96 94 90 84 77 71 66 63 60 58 56 54 52 49 46 44 41 38 35 32 28 23 18 15 14 16 17 18 18 19 19 20 19 20 21 23 25 30 33 36 40 41 36 31 27 24 23 21 20 19 18 18 25 36 41 43 47 50 48 45 44 45 46 47 46 42 32 28 40
96 98 100 101 101 101 100 98 97 97 96 95 96 98 98 96 92 86 80 75 71 67 64 61 59 58 57 54 51 48 45 42 40 38 34 29 24 18 16 16 17 18 20 21 21 20 20 22 24 26 28 29 30 31 34 37 40 39 35 30 26 23 22 22 20 19 20 24 32 38 39 40 42 43 41 38 36 37 39 38 33 27 31 50 79
97 97 97 97 98 97 97 96 95 95 94 94 95 96 94 90 85 80 76 72 69 67 65 63 61 60 56 54 51 48 47 45 41 37 31 25 20 18 18 19 19 20 23 24 22 22 24 27 31 32 33 33 32 32 33 35 36 35 31 27 24 22 21 21 22 23 26 31 35 37 37 38 38 37 35 32 31 32 30 27 28 41 65 90 104
91 92 93 94 95 96 97 97 96 95 94 94 94 94 92 87 82 77 74 72 70 68 66 63 61 59 57 56 55 52 50 46 40 33 27 23 21 20 20 20 21 24 26 25 24 27 31 35 37 37 36 36 35 34 32 33 32 31 28 24 21 20 21 23 25 27 30 33 34 34 34 34 33 33 31 29 28 25 22 33 58 82 98 104 102
89 91 91 92 96 99 102 103 102 100 100 99 97 95 90 83 79 75 73 72 69 66 64 62 61 61 60 59 58 55 51 45 37 30 26 24 24 23 22 21 24 27 28 27 30 36 40 42 43 42 40 39 38 36 32 30 29 27 25 22 20 21 22 24 26 28 30 31 30 29 30 30 29 28 26 25 25 27 38 66 93 103 102 101 101
88 90 92 94 98 103 106 106 105 104 103 100 95 90 85 80 76 74 71 70 68 66 65 64 63 64 63 61 60 56 49 40 33 29 28 28 27 25 23 23 27 30 29 33 41 46 46 47 46 45 43 41 39 37 33 29 27 28 29 27 24 23 24 24 26 26 26 26 27 27 27 25 23 26 32 39 49 62 80 98 104 101 100 102 102
86 90 92 94 98 101 105 106 104 101 99 95 89 84 82 79 75 72 71 70 69 68 67 66 66 66 65 64 61 53 43 36 33 32 31 31 29 26 25 27 31 32 32 39 50 53 51 51 49 46 45 42 38 36 34 31 31 34 41 44 41 36 31 28 27 28 27 26 26 25 24 29 39 55 71 82 91 99 104 105 101 100 101 101 100
86 89 90 91 94 97 100 102 100 96 92 89 85 82 82 80 77 74 73 72 70 69 68 68 69 68 68 65 58 47 40 36 35 35 35 33 29 26 26 30 33 33 36 46 56 58 56 54 51 47 45 41 38 38 39 41 43 48 56 65 68 63 51 40 38 38 34 31 34 40 51 66 82 93 99 102 104 105 104 101 100 101 101 99 100
87 89 89 89 90 92 94 95 93 90 87 86 85 84 83 82 79 77 75 73 72 71 70 71 72 72 70 63 52 44 40 38 40 42 41 34 29 27 29 32 34 34 39 51 60 61 60 58 53 49 45 41 40 43 46 49 55 63 72 79 84 83 75 63 57 54 50 52 64 78 90 98 101 101 100 101 102 102 101 101 100 100 101 101 101
89 89 88 87 87 88 89 89 87 86 86 86 87 87 86 84 81 78 76 75 74 73 73 75 76 75 69 58 48 43 41 40 45 48 43 35 31 31 33 35 35 35 42 54 62 63 63 60 54 50 48 45 45 50 55 60 66 74 83 88 90 92 92 84 77 76 79 86 94 99 101 101 100 100 100 100 100 100 100 100 100 100 100 100 100
91 90 89 88 87 86 87 88 88 88 89 89 89 89 88 86 83 80 77 76 75 76 78 80 80 75 65 54 48 45 41 43 51 53 44 36 34 35 39 41 37 34 39 50 58 60 61 61 56 49 47 50 55 61 65 70 77 85 92 94 93 96 99 97 95 96 98 100 101 100 100 100 100 100 100 100 100 101 100 100 100 100 100 100 100
93 94 94 92 91 91 92 93 93 92 92 91 91 91 90 87 84 81 78 76 76 79 83 85 82 73 61 52 49 47 44 48 57 57 47 40 39 39 41 44 41 35 38 47 53 54 55 56 54 49 44 48 64 78 81 80 85 94 100 100 97 99 102 101 101 101 100 100 100 100 100 100 100 100 101 101 100 100 100 100 100 100 100 100 100
99 100 101 100 100 98 97 97 97 96 94 94 93 92 91 89 86 83 79 77 78 82 87 87 82 69 58 53 51 48 47 54 64 62 50 45 49 51 48 45 43 41 44 50 54 55 54 55 53 49 43 42 56 80 97 99 97 100 104 103 102 102 102 101 100 100 100 100 100 100 100 100 100 100 100 100 100 100 100 101 100 100 100 100 100
104 104 104 104 104 101 99 99 99 98 97 95 92 91 91 90 87 84 81 80 82 85 88 87 80 66 58 55 52 48 50 60 71 70 56 45 49 60 61 53 48 48 50 54 58 58 59 58 54 48 44 41 46 67 93 105 103 101 103 102 102 102 102 100 100 100 100 100 100 100 100 100 100 100 100 100 101 100 100 100 100 100 101 101 100
Wind_Speed
59 59 58 58 58 58 58 57 57 56 56 56 56 57 57 58 59 59 59 59 59 59 59 59 58 58 58 59 60 61 62 62 63 63 64 64 65 65 66 67 67 67 67 67 67 67 67 67 67 67 67 68 67 67 68 68 68 69 69 70 70 70 71 72 74 75 75 74 74 74 74 74 74 74 74 74 74 73 74 74 75 75 75 76 76
57 57 57 57 57 57 56 55 55 55 55 55 56 57 58 59 59 59 58 58 58 58 59 59 59 59 60 60 61 62 63 63 64 64 65 65 66 66 66 66 66 66 66 66 66 66 66 67 67 67 67 68 68 69 70 70 71 71 72 72 73 73 72 73 75 76 77 77 77 76 75 75 75 76 77 77 77 76 76 76 77 77 78 79 79
55 55 56 55 55 54 54 53 53 54 55 56 57 58 58 58 58 57 57 57 58 59 59 60 60 61 61 62 62 62 63 64 65 65 66 66 66 66 66 66 65 66 66 67 68 68 68 68 68 68 68 68 69 70 71 72 73 74 75 75 76 76 76 76 77 78 79 79 80 79 78 77 76 77 79 79 79 79 79 79 79 79 80 81 81
53 53 53 53 52 52 52 52 53 54 55 56 56 56 57 57 57 57 57 58 59 60 60 61 62 62 62 63 64 64 64 65 65 65 65 66 66 66 66 67 67 68 68 69 70 70 70 69 69 70 70 70 71 71 72 73 74 75 76 77 78 79 79 79 79 80 81 82 83 83 82 81 79 79 80 81 82 82 82 82 82 82 82 83 83
52 52 52 51 51 51 52 52 53 54 55 55 55 55 56 56 56 57 58 59 60 61 61 62 62 63 63 64 64 65 65 65 64 64 65 66 66 66 67 68 69 70 71 72 72 72 72 72 72 72 72 72 72 73 73 73 74 75 76 78 79 80 80 81 80 81 82 84 85 86 86 86 84 83 82 81 82 84 85 85 85 85 85 85 86
52 51 51 51 51 51 52 53 54 54 54 55 55 55 56 57 58 59 59 60 61 62 62 63 63 64 65 65 65 65 64 64 65 66 66 67 67 67 68 70 71 72 73 74 74 74 75 75 75 75 74 74 74 74 74 74 74 74 76 77 78 79 80 81 81 81 82 83 84 86 88 89 88 88 87 85 84 83 85 87 88 88 88 88 88
52 51 51 51 52 52 52 53 54 55 55 56 56 57 57 58 59 60 61 61 62 63 63 64 65 65 66 66 66 66 65 66 67 68 69 69 69 70 71 72 73 74 75 75 76 77 77 77 76 75 74 74 74 74 74 75 75 75 76 77 78 79 81 81 81 81 82 82 83 85 87 89 90 90 89 89 87 85 84 86 88 90 91 91 91
52 52 52 52 52 52 53 54 55 56 57 57 58 58 59 59 60 61 61 62 63 64 65 66 66 66 67 66 66 67 68 68 69 70 70 71 72 73 74 75 76 76 76 76 76 76 76 75 75 74 74 74 74 74 74 75 76 76 77 78 79 80 81 82 82 83 83 83 84 85 86 88 89 90 91 91 91 89 86 85 87 90 91 92 92
52 52 52 52 52 53 55 56 57 58 58 58 58 59 59 60 60 61 62 63 64 65 65 66 66 66 66 66 67 68 69 70 71 72 73 74 75 76 77 77 77 76 76 75 74 73 73 72 72 73 74 74 74 75 75 76 77 77 78 79 80 81 82 83 84 85 85 86 86 87 88 89 90 91 92 92 93 92 90 87 87 89 90 91 92
52 52 52 53 54 55 56 57 57 58 58 59 59 60 60 61 61 62 63 63 64 64 64 64 64 65 66 67 68 69 70 72 73 75 76 78 78 78 77 77 76 74 73 72 71 70 70 70 71 72 73 74 75 76 77 78 79 79 79 80 80 81 82 84 85 85 86 87 88 89 89 90 91 92 93 94 95 96 95 92 90 89 90 90 92
52 52 53 54 55 56 56 57 57 58 59 59 60 61 61 62 62 62 62 63 63 63 64 64 66 67 68 70 71 72 74 75 76 78 78 78 78 78 77 76 74 72 70 70 69 69 70 71 72 73 74 75 76 78 79 80 80 81 81 82 82 82 83 84 85 85 87 88 88 89 90 91 92 93 93 95 97 98 98 98 96 94 92 91 92
52 53 54 55 55 56 56 57 58 59 59 60 61 62 62 62 62 63 63 63 64 64 66 68 69 71 72 73 74 76 77 78 78 78 78 78 78 77 76 74 72 71 70 70 70 71 72 72 73 74 75 76 77 78 79 80 81 82 83 83 83 84 84 85 85 85 86 87 88 89 90 91 92 93 94 95 97 98 100 101 100 99 97 95 94
53 53 54 54 54 55 56 57 58 59 60 61 61 61 62 63 64 64 64 65 66 69 70 71 72 73 75 76 77 78 78 78 79 79 79 78 77 75 74 72 71 70 71 71 72 73 73 74 75 75 76 77 78 78 79 80 81 82 83 83 84 85 85 86 86 86 86 87 87 88 89 89 91 92 94 95 96 97 99 101 101 102 102 99 97
53 53 53 53 54 55 56 58 59 60 60 61 62 62 63 64 64 65 67 70 71 72 73 73 74 76 77 78 78 78 78 79 79 79 78 76 74 73 72 71 71 71 72 73 74 74 75 75 76 76 77 77 78 79 80 80 81 82 83 83 84 85 85 86 86 86 86 86 87 87 88 89 89 90 92 93 95 96 98 99 101 103 104 102 101
52 53 53 54 55 56 57 58 59 60 61 62 63 63 64 65 67 69 71 73 73 74 75 76 77 78 78 78 79 79 79 79 78 76 74 73 72 71 71 72 72 73 74 74 75 75 75 76 76 77 78 78 79 80 81 82 83 83 84 84 84 85 86 86 86 86 86 86 86 87 88 88 88 89 90 91 92 94 96 98 99 101 103 103 102
53 53 54 54 55 56 58 59 60 61 62 63 64 65 66 68 71 72 73 74 75 76 77 78 78 78 79 79 79 79 78 76 74 72 71 70 71 71 72 73 74 74 75 75 76 76 76 76 77 78 79 80 81 82 83 83 84 85 85 85 85 85 86 86 86 87 87 86 86 87 88 88 87 88 89 89 89 91 92 94 96 98 100 101 102
53 53 53 54 55 57 59 60 61 62 63 65 67 68 70 71 72 73 75 76 77 77 78 78 78 79 79 79 78 76 74 71 70 69 70 71 72 72 73 74 75 75 76 76 77 77 77 78 78 79 80 81 82 83 84 85 86 86 86 86 86 86 87 87 87 87 87 87 88 88 88 87 87 88 88 88 88 88 90 91 93 95 97 98 99
51 51 52 54 56 58 60 61 63 64 66 68 69 71 72 73 74 75 76 77 77 78 78 79 79 80 79 77 74 72 70 69 69 70 71 72 72 73 74 74 75 76 77 78 78 78 79 80 80 81 82 83 84 85 86 86 87 87 87 87 87 88 88 88 88 88 88 88 89 88 88 88 87 87 88 87 87 87 89 89 90 92 94 95 97
48 50 52 55 57 59 61 63 65 66 68 69 71 72 73 74 75 76 77 78 79 79 79 80 80 79 76 73 70 69 69 70 70 71 72 72 73 74 75 76 77 78 78 79 79 80 81 82 82 83 84 85 86 87 87 87 88 88 88 88 89 90 90 89 89 89 89 89 89 89 89 88 88 88 88 87 87 87 88 88 89 90 91 93 94
46 51 55 58 60 62 63 65 66 68 69 71 72 73 75 76 77 78 79 79 80 80 81 80 78 74 71 69 68 68 69 70 71 72 72 73 74 75 76 77 77 78 79 80 81 82 83 84 85 85 86 87 88 88 89 89 89 89 89 90 90 91 92 91 90 89 89 89 90 89 89 89 88 89 89 88 88 88 88 88 88 89 89 90 90
48 53 56 58 60 63 64 66 68 69 71 73 74 76 77 78 79 80 80 80 81 82 80 76 72 69 67 67 68 69 70 70 71 72 73 73 74 75 76 77 78 79 81 82 84 85 86 86 86 87 88 89 89 90 90 90 90 90 91 92 92 92 93 92 91 91 90 90 91 90 90 89 90 90 90 89 89 88 87 87 87 87 87 87 88
53 55 58 60 62 65 67 69 71 72 74 76 77 78 79 80 81 81 82 83 82 79 75 70 67 66 67 67 68 69 70 71 72 72 73 74 75 76 77 79 80 82 84 85 86 87 87 88 88 89 90 91 91 91 92 92 93 93 93 93 93 93 93 93 93 92 91 92 92 92 91 91 91 92 91 90 89 87 86 85 85 85 84 84 84
58 60 63 65 67 69 71 73 74 76 77 78 79 80 81 82 83 83 83 81 77 72 68 66 65 66 67 68 69 70 71 72 72 73 74 75 77 78 80 82 83 85 86 88 88 88 88 89 90 91 92 92 93 93 94 94 95 95 95 94 94 94 94 94 93 93 94 94 95 94 93 92 92 92 91 89 88 86 84 84 83 83 82 81 81
63 65 67 69 71 73 74 76 77 78 79 80 81 82 83 83 83 82 79 75 70 67 65 65 66 67 68 69 70 71 72 72 73 74 76 78 79 81 83 85 86 88 88 89 89 89 90 91 91 92 93 93 94 95 95 96 96 97 96 95 95 95 95 95 95 95 95 95 95 94 92 91 91 90 89 87 86 84 83 82 81 81 80 79 78
66 69 70 72 74 75 77 78 79 79 80 81 82 82 82 81 79 76 72 68 66 65 65 66 67 68 69 70 71 71 72 74 75 77 78 80 82 84 86 87 89 89 89 89 89 90 91 92 93 94 94 95 96 97 97 97 97 97 97 96 96 97 97 97 96 95 94 93 92 91 89 88 88 87 86 84 83 82 81 81 80 79 78 77 77
70 71 73 74 75 77 78 78 78 78 79 79 79 79 78 76 72 69 66 65 65 65 66 67 68 69 70 70 71 73 74 76 78 79 81 83 85 87 88 89 89 89 89 89 91 92 93 94 94 95 96 97 98 98 98 98 97 98 98 98 98 98 97 95 93 91 90 88 87 85 84 83 83 83 82 81 80 80 79 78 77 76 76 76 75
72 73 74 75 76 76 76 76 76 76 76 76 76 75 72 69 66 64 64 64 65 65 66 68 69 70 71 72 73 75 77 79 81 82 84 86 88 89 89 89 89 90 90 92 93 94 94 95 96 97 98 98 98 98 98 98 99 99 99 98 97 95 92 90 87 85 84 82 81 79 78 77 78 78 78 77 78 77 77 76 75 74 74 75 74
74 74 74 74 73 73 73 73 73 73 73 72 70 68 66 64 62 62 63 64 65 66 67 68 69 71 72 74 75 78 80 82 84 85 87 88 88 88 88 89 90 91 92 93 94 95 96 97 98 98 99 99 99 99 99 100 100 98 97 94 91 88 86 83 81 80 78 77 76 75 74 73 73 74 74 74 75 74 74 73 73 73 73 73 73
72 71 70 70 70 70 69 69 68 67 66 65 64 62 61 61 61 62 63 64 65 66 68 69 71 73 74 76 78 80 83 85 86 87 87 87 87 88 89 90 91 92 94 95 96 97 97 98 98 99 99 100 100 100 100 99 97 94 90 87 84 81 79 78 77 75 74 73 72 71 70 69 69 70 70 71 72 72 71 70 70 71 71 71 71
67 66 66 66 65 65 64 63 62 61 61 60 59 59 59 60 61 62 63 65 66 68 70 72 74 75 77 79 81 83 84 85 85 85 86 86 87 89 90 91 92 93 95 96 96 97 98 99 99 99 100 100 100 98 96 93 89 86 83 80 77 75 73 72 71 71 70 70 69 67 66 65 66 66 67 68 69 69 68 68 69 69 69 69 69
63 63 62 61 61 61 60 59 59 58 58 58 58 59 60 61 63 64 66 67 69 71 72 74 76 78 80 81 82 82 83 83 83 84 85 87 88 89 91 92 93 94 95 96 96 97 98 99 100 99 98 97 94 90 87 83 80 78 76 74 71 69 67 66 65 65 65 66 65 64 63 62 62 62 63 65 66 66 65 66 67 67 67 67 67
61 61 60 59 59 59 59 58 58 57 57 58 59 60 61 63 64 66 67 69 71 72 74 76 77 78 79 79 79 80 80 82 83 84 86 87 89 90 91 92 93 93 94 95 96 97 98 98 98 95 93 89 85 82 79 76 74 72 71 70 67 64 62 61 60 60 60 61 61 60 59 59 58 59 59 61 63 64 63 63 64 65 65 65 65
60 59 59 59 58 58 58 58 57 57 57 57 58 59 61 63 64 66 68 69 71 72 73 74 75 76 76 77 78 79 80 82 83 85 87 88 89 90 91 91 92 92 94 95 96 97 96 94 91 88 84 81 77 75 73 71 69 67 66 65 63 60 58 57 56 56 56 57 57 56 55 55 55 55 56 57 59 60 61 61 62 62 63 62 62
58 58 57 57 57 57 57 57 57 57 57 57 58 59 60 62 64 65 67 68 69 70 71 72 73 74 75 76 78 79 81 82 84 86 87 88 89 89 90 91 91 92 94 94 94 92 89 86 83 81 78 75 72 70 68 65 62 60 59 58 58 56 54 53 52 52 52 52 53 52 51 51 51 52 53 54 56 57 59 60 60 60 60 59 59
55 54 54 55 55 55 55 56 56 56 56 57 58 59 61 62 64 65 66 67 68 69 71 72 73 74 76 77 79 80 82 84 85 86 86 87 88 88 89 90 91 92 92 90 88 85 81 78 77 75 73 70 67 64 60 56 54 53 52 52 51 50 49 49 48 48 48 48 49 48 48 48 48 49 51 52 53 54 56 57 58 57 57 56 55
52 52 52 53 53 54 54 54 55 55 56 57 58 60 61 63 64 65 65 67 68 69 70 72 74 76 78 79 81 82 83 84 84 85 85 86 87 88 89 90 89 88 86 83 81 78 75 73 72 70 68 64 59 55 52 49 48 47 47 46 46 45 45 44 45 45 44 44 45 44 44 45 46 47 49 50 51 52 53 54 55 54 53 52 51
50 51 51 52 52 53 53 53 54 55 56 57 59 60 61 62 63 64 65 66 68 70 72 74 76 78 79 81 82 82 82 83 83 84 85 85 86 87 88 87 85 81 78 76 74 71 70 69 67 64 61 57 52 48 46 45 44 44 44 43 42 41 41 41 41 41 41 41 41 41 42 43 44 45 47 48 48 49 50 51 51 50 50 49 48
50 50 51 52 53 54 54 55 56 57 57 58 59 60 61 61 63 64 66 68 70 72 74 76 77 79 80 81 81 82 82 83 83 84 84 85 86 85 83 81 78 75 72 70 69 67 65 63 60 57 54 51 47 43 42 41 41 42 42 40 39 38 38 38 38 38 38 38 38 39 40 41 42 43 44 45 45 46 46 47 47 47 46 45 44
51 51 52 53 54 55 55 56 56 57 57 58 58 60 61 62 64 66 68 70 72 74 75 76 77 78 79 80 81 82 82 82 82 83 83 84 82 80 77 75 72 69 67 66 65 63 59 55 53 51 49 47 44 41 39 38 39 39 39 38 37 36 36 36 35 34 34 35 36 37 38 39 40 41 42 42 42 43 43 43 43 43 42 40 41
52 52 52 53 54 54 55 56 56 56 57 58 59 61 63 64 66 68 70 71 73 74 75 76 76 77 79 80 81 81 81 81 81 81 80 79 77 74 72 68 65 63 63 63 62 58 53 49 48 47 45 44 43 40 37 36 36 36 36 36 36 35 34 33 31 31 31 32 33 35 36 37 38 39 40 40 40 40 39 39 39 39 38 38 39
52 52 52 53 54 55 56 56 57 57 58 59 60 62 64 67 68 70 71 72 72 73 74 75 77 78 79 79 80 80 79 79 79 78 75 74 72 69 66 63 60 59 60 60 57 53 48 46 45 45 44 42 41 39 36 34 34 34 34 34 34 32 31 29 28 28 29 30 31 32 33 34 36 37 37 37 38 38 36 36 35 35 36 37 37
53 53 53 54 54 55 56 57 58 59 60 61 62 64 67 68 70 70 71 71 73 74 75 76 77 78 78 78 77 77 77 77 76 74 71 69 67 64 62 59 58 57 57 56 53 49 45 43 42 42 42 40 39 38 36 33 31 31 32 32 31 29 28 26 25 26 27 28 29 30 31 32 33 34 34 34 34 34 33 32 33 34 34 35 34
54 54 55 55 55 56 57 58 60 61 62 63 65 66 68 69 69 70 71 72 74 75 76 77 77 77 76 75 75 75 75 74 72 70 67 64 62 60 58 57 57 56 54 51 49 45 43 41 40 40 40 38 37 36 35 33 31 29 29 29 27 26 25 24 23 24 24 25 27 28 29 29 29 29 30 30 31 31 30 30 31 32 33 34 34
55 55 55 56 56 57 58 60 61 63 64 66 67 67 68 69 69 70 71 73 74 76 76 76 75 74 73 72 72 72 72 71 69 66 63 60 58 57 56 56 55 54 51 47 45 43 41 39 38 38 38 36 35 34 33 31 30 27 25 25 24 23 22 21 21 22 23 24 25 26 26 25 25 26 27 28 29 30 29 29 30 32 33 35 34
55 56 56 57 57 58 59 61 63 64 65 67 67 68 68 69 70 71 73 74 75 75 75 74 73 71 70 69 69 69 69 68 65 62 60 57 55 55 55 54 53 51 48 44 42 41 39 38 37 36 36 35 33 32 31 29 28 26 22 21 20 20 19 19 19 20 22 22 23 23 23 23 23 25 27 27 28 28 29 29 30 32 34 35 33
56 57 57 58 59 60 61 62 64 65 66 67 68 69 69 70 72 73 73 74 74 73 73 71 69 68 67 67 67 66 65 63 61 59 58 56 54 54 54 53 51 49 45 41 40 39 38 36 35 35 35 34 32 31 30 28 26 23 20 18 17 17 17 18 18 19 21 21 22 22 22 22 23 25 25 26 27 28 28 29 30 32 34 34 32
57 58 58 59 60 61 62 63 64 65 67 68 69 70 71 71 72 73 73 73 73 72 70 68 67 66 66 66 65 64 61 59 57 56 55 53 53 53 53 52 51 47 42 38 37 37 36 34 33 32 32 33 32 30 28 27 24 21 19 17 16 15 16 17 18 19 20 21 22 22 22 22 23 23 24 25 27 28 28 29 30 32 33 32 30
59 59 59 60 61 62 63 64 65 66 67 68 69 70 71 72 72 73 73 72 71 70 68 66 65 65 65 64 63 61 59 56 54 53 52 51 50 51 52 52 50 47 41 36 33 33 32 31 30 29 29 29 30 29 27 24 22 20 18 16 15 15 15 16 18 19 21 22 22 22 22 23 23 23 23 25 27 28 29 29 30 31 31 30 28
59 60 60 61 62 63 64 65 67 68 68 69 70 71 72 72 73 73 72 71 69 67 65 64 64 64 64 63 61 59 56 53 52 51 50 49 49 50 50 50 49 47 43 37 33 32 31 29 28 27 26 25 26 26 25 23 21 18 16 16 16 15 16 17 19 20 21 22 23 23 23 23 23 23 24 25 27 28 29 30 30 30 30 28 26
60 61 61 63 64 65 66 67 68 69 70 70 71 71 72 73 73 73 72 70 67 65 63 62 63 63 62 61 59 56 54 52 50 49 47 46 47 49 51 50 48 46 43 39 35 33 33 31 29 26 25 24 23 22 22 22 21 18 15 15 16 17 17 18 19 21 22 23 23 24 24 23 23 23 24 25 27 28 29 29 30 29 28 26 25
61 61 62 63 64 66 67 68 69 70 71 71 72 72 72 73 73 72 71 68 66 63 62 61 62 61 60 59 57 54 52 50 49 48 45 43 42 44 48 50 49 46 43 40 36 33 33 33 31 27 24 23 23 22 20 19 19 18 15 14 15 17 18 19 20 21 22 23 24 24 24 23 22 23 24 25 27 28 28 29 29 28 26 25 24
Wind_Direction
287 287 286 286 286 286 285 285 284 283 282 281 281 281 281 281 280 280 280 280 279 279 279 279 278 278 278 278 278 278 278 278 279 280 280 281 281 282 282 282 283 283 283 283 283 283 282 282 282 282 282 281 281 281 280 279 278 276 275 273 272 271 270 269 268 266 264 264 263 263 263 262 262 261 261 260 259 258 258 257 257 257 257 256 256
287 287 286 286 286 286 285 284 282 282 281 281 281 280 280 280 279 279 279 278 278 278 278 278 278 278 277 277 277 277 278 278 279 280 280 281 282 282 282 282 283 283 283 283 283 282 281 281 281 280 280 280 280 280 279 279 278 277 277 275 274 273 272 271 270 268 267 265 264 263 263 263 263 262 261 260 260 259 258 257 257 257 257 256 256
288 287 287 287 287 286 285 283 282 281 280 280 280 280 279 279 278 278 278 277 277 277 277 277 278 278 278 278 278 278 278 279 279 280 280 280 281 281 282 282 282 282 283 283 283 283 282 281 280 280 279 278 278 277 277 277 277 276 276 275 275 274 273 273 272 271 269 268 266 264 263 263 263 263 262 261 260 259 259 258 257 257 257 256 256
288 288 288 288 287 286 284 282 281 280 280 279 279 278 278 278 277 277 277 277 277 277 278 278 279 279 279 279 280 280 280 280 280 281 281 281 282 283 284 284 284 284 284 285 285 286 285 284 283 282 281 280 279 278 277 277 276 276 275 275 274 274 273 273 272 272 271 270 269 267 266 264 263 263 263 263 262 261 260 259 258 258 257 257 256
289 289 289 288 287 285 284 282 281 280 279 278 278 278 278 277 277 277 278 278 278 278 278 279 279 279 279 280 280 281 281 282 282 282 283 284 285 285 286 286 287 287 287 288 288 288 288 288 287 286 285 284 282 280 279 278 277 277 276 275 274 274 273 273 272 272 272 271 270 269 268 266 265 263 263 262 263 263 262 261 260 259 258 258 257
291 290 289 288 286 284 283 281 280 279 279 279 278 278 278 278 278 278 278 278 278 279 279 279 279 279 279 279 279 279 280 281 281 282 282 284 285 286 287 288 289 289 290 290 290 290 290 289 289 288 287 286 285 283 282 280 279 278 277 277 276 275 274 273 273 273 272 272 271 271 270 268 267 265 264 262 261 262 263 263 262 261 260 259 258
291 290 288 287 285 283 282 280 280 280 280 279 279 279 279 279 279 279 279 279 279 279 279 279 279 279 279 279 279 279 280 280 281 282 283 284 286 287 288 289 290 291 290 290 290 289 289 289 288 288 287 286 286 285 284 283 282 281 280 279 278 277 276 275 274 274 273 273 272 271 271 270 269 268 266 264 262 260 261 262 262 262 261 260 259
289 288 287 286 284 282 281 281 281 281 281 281 281 281 281 280 280 280 280 280 280 280 279 279 279 279 280 280 281 281 281 282 283 284 285 286 288 289 290 290 291 290 290 289 289 288 288 288 288 287 287 287 287 286 286 285 284 283 282 281 280 279 278 277 276 275 275 274 273 272 271 271 270 269 268 267 264 262 260 260 261 261 261 261 260
288 287 286 284 283 282 282 283 283 282 282 282 282 282 281 281 281 281 281 281 281 281 281 281 282 282 282 282 282 283 284 285 286 287 288 288 289 289 290 290 290 289 289 288 288 287 288 288 288 288 288 288 288 288 287 286 286 285 284 283 282 281 281 280 278 277 276 275 274 273 272 271 270 270 269 268 267 265 262 260 259 259 260 260 260
288 286 285 284 284 284 284 284 283 283 283 283 283 283 283 283 283 283 282 282 283 283 283 283 283 283 283 284 284 285 286 287 287 288 288 288 288 289 289 289 289 288 288 288 288 288 288 287 287 288 288 288 288 288 288 288 287 287 286 285 284 283 282 281 281 280 279 277 276 275 273 272 271 270 269 269 268 266 265 262 261 259 258 258 259
287 286 285 285 285 285 285 284 284 284 284 284 284 284 284 284 284 283 283 283 284 284 284 285 285 285 286 286 286 287 287 287 287 287 287 288 288 288 288 287 287 287 287 287 287 287 287 287 287 288 287 288 288 288 288 288 288 287 287 286 286 285 284 283 282 281 280 279 278 277 276 274 272 271 269 269 268 267 266 264 263 261 259 257 257
287 286 286 286 286 286 286 285 285 285 285 286 286 286 286 286 285 285 285 285 286 287 287 287 287 287 286 286 286 286 286 286 286 286 287 287 287 286 286 286 286 286 286 286 287 287 287 288 288 288 288 288 288 288 288 288 288 287 287 287 286 286 285 284 283 282 281 280 279 278 277 276 274 273 271 269 268 267 266 265 264 263 261 259 257
288 288 288 288 288 288 288 287 287 287 287 287 287 287 286 286 286 286 287 288 288 287 287 286 285 285 285 285 285 285 286 286 286 286 286 286 285 285 285 284 285 285 286 286 287 287 287 288 288 288 288 288 288 288 288 288 287 287 287 287 287 286 286 285 284 283 282 281 280 279 278 276 275 274 272 271 269 268 266 265 264 263 262 260 259
291 291 290 290 290 289 288 288 287 287 287 287 287 286 286 286 286 287 288 287 287 286 285 284 284 284 284 285 285 286 286 286 286 286 286 285 285 284 284 285 285 285 286 286 287 287 288 288 288 288 289 289 289 288 288 288 287 287 287 286 286 286 285 285 284 284 283 282 281 280 279 277 276 274 273 271 270 269 267 266 264 263 262 261 260
292 292 291 290 290 289 288 287 287 287 287 286 286 286 286 286 286 286 286 285 284 283 283 283 284 285 285 286 286 286 286 286 286 285 285 285 285 285 285 285 286 286 286 287 287 287 288 288 289 289 289 290 290 289 289 288 288 287 286 286 285 285 284 284 284 283 282 282 281 280 279 278 277 275 274 272 271 270 268 267 265 264 263 262 260
292 291 291 290 289 288 287 287 286 285 285 285 285 285 285 285 284 284 283 282 282 282 283 284 284 285 285 286 286 287 286 286 285 285 285 285 285 286 286 286 286 287 287 287 288 288 289 289 290 290 290 290 290 290 289 289 288 287 286 285 285 284 283 283 283 282 282 281 279 278 277 276 275 274 273 273 272 271 270 268 267 265 264 262 261
292 292 291 290 288 287 286 285 284 284 283 283 283 283 283 282 282 281 281 281 282 283 284 285 286 286 287 287 287 287 286 285 284 285 285 285 286 286 286 287 287 288 288 289 289 289 290 290 290 291 291 290 290 290 290 289 288 287 287 286 285 284 284 283 283 282 281 280 278 277 276 275 273 273 272 272 271 271 270 269 268 267 266 264 262
292 291 289 287 285 284 283 282 282 282 282 281 281 281 281 280 280 281 282 283 284 286 286 287 287 288 288 288 286 285 284 284 284 284 284 285 285 286 287 287 288 289 290 290 290 290 291 291 291 291 291 290 290 290 289 289 288 287 287 286 285 285 284 284 283 282 281 279 278 276 275 274 272 271 271 270 270 269 269 268 267 267 266 265 264
290 289 286 284 282 281 280 280 280 280 279 279 280 280 280 281 283 284 285 286 287 287 288 288 288 288 287 286 284 283 283 283 283 284 284 285 286 287 287 288 289 290 290 291 291 291 291 292 292 291 291 290 290 289 289 288 287 287 286 286 286 285 284 284 282 281 280 278 277 275 274 273 272 271 270 270 269 268 267 267 266 265 265 264 264
287 285 281 279 278 277 277 277 278 278 279 280 281 283 284 285 286 287 288 288 288 288 289 289 288 287 285 283 282 282 283 283 284 285 285 286 287 288 289 290 290 290 291 291 291 292 292 292 292 291 291 290 290 289 288 288 287 286 286 286 285 285 284 283 281 280 278 277 276 275 274 273 272 271 270 270 269 268 267 266 265 264 263 263 263
280 277 275 275 275 276 277 278 279 281 283 284 285 287 288 288 288 288 288 289 289 289 289 288 286 284 282 282 282 283 283 284 285 286 287 288 289 290 290 290 291 291 291 292 292 293 293 292 292 291 290 290 289 289 288 287 287 286 286 286 285 284 283 282 281 279 278 277 275 274 273 272 272 271 270 269 268 267 265 264 263 263 262 262 261
276 276 277 277 278 279 281 283 284 286 287 288 288 289 289 289 289 289 289 289 289 289 287 284 282 281 281 281 282 283 285 286 287 288 289 289 290 290 291 291 291 292 292 292 293 293 292 292 292 291 291 290 289 289 288 287 287 286 286 285 284 283 282 281 280 279 278 277 275 274 273 272 271 270 268 267 266 265 264 263 262 261 261 260 260
279 280 281 283 284 285 287 288 288 289 289 290 290 290 290 290 289 289 289 289 288 285 283 281 280 280 281 282 283 285 286 287 288 289 289 290 291 291 291 292 292 292 293 293 293 293 292 292 292 291 291 290 290 289 288 288 287 287 286 285 283 282 281 281 280 279 278 277 275 274 273 271 269 268 267 266 264 263 262 261 260 260 260 259 259
283 285 286 288 289 289 290 290 290 290 291 290 290 290 290 290 289 289 288 287 284 282 281 280 281 281 282 284 285 286 287 288 289 290 290 291 292 292 292 293 293 294 294 294 293 293 293 293 292 292 291 290 290 289 289 288 287 287 285 284 283 282 281 281 280 279 277 276 274 273 271 269 267 266 265 263 262 261 260 259 258 258 258 258 258
288 289 289 290 290 291 291 291 291 291 291 291 291 290 290 290 289 288 286 284 282 281 281 281 282 283 284 285 287 288 289 290 290 291 291 292 293 293 294 294 294 294 294 294 294 293 293 293 292 292 291 290 290 290 289 288 287 286 286 285 284 283 282 281 279 277 276 274 272 270 269 267 265 264 263 262 261 259 258 258 257 257 257 257 257
290 290 290 291 291 292 292 292 293 293 292 292 291 291 290 290 288 286 284 282 282 282 282 283 284 285 286 288 289 290 291 291 291 292 292 293 294 294 295 295 295 294 294 294 294 294 293 293 292 292 291 291 290 290 289 288 287 287 286 285 284 283 281 279 278 276 273 271 270 268 266 264 263 262 261 261 260 259 258 257 257 256 256 256 256
291 291 292 293 293 294 294 294 294 294 293 293 292 291 290 288 286 285 284 283 283 284 284 285 287 288 289 290 291 292 292 292 292 293 293 294 295 295 295 295 295 295 295 295 295 294 294 293 293 292 292 291 291 290 289 289 288 287 286 285 283 282 280 278 276 273 271 269 268 266 264 263 261 260 260 259 258 258 257 256 256 256 256 256 255
294 295 295 295 295 295 295 295 295 295 294 293 292 291 289 287 286 285 285 285 286 286 287 289 290 291 291 292 292 292 293 293 294 294 295 295 295 295 295 296 296 296 296 296 295 295 294 294 294 293 293 292 292 291 290 290 289 287 286 284 282 280 278 275 273 271 270 268 266 265 263 261 260 258 258 257 257 256 256 255 255 255 255 255 255
297 297 297 297 297 297 297 297 296 295 294 293 292 290 289 288 288 288 288 288 289 289 290 291 292 292 293 293 293 294 294 295 295 296 296 296 296 296 297 297 297 297 297 297 296 296 296 295 295 294 294 294 293 292 292 290 289 287 285 283 280 278 276 274 271 269 267 266 264 263 262 261 259 258 256 255 255 255 255 254 254 253 254 254 254
299 299 299 300 300 299 299 299 298 297 296 294 292 292 291 291 291 291 291 291 291 292 292 293 293 293 294 294 295 295 296 296 297 297 297 297 298 298 298 298 298 298 298 298 297 297 297 296 296 296 295 295 294 293 292 290 289 287 284 282 279 277 274 272 270 268 265 263 262 261 260 259 258 257 256 254 254 254 253 253 252 252 253 253 253
302 302 302 302 302 302 301 301 300 299 297 296 295 294 293 293 293 293 292 293 293 293 293 294 294 295 295 296 297 297 298 298 298 298 299 299 299 299 299 299 299 299 299 299 298 298 298 298 297 297 296 295 295 293 292 290 288 286 284 281 279 276 274 272 269 266 263 261 260 260 259 258 257 257 256 254 253 253 253 252 252 252 252 252 252
303 303 303 303 302 302 302 302 301 300 299 298 297 296 295 294 294 294 294 294 294 295 295 296 296 297 297 298 298 299 299 299 300 300 300 300 300 300 300 300 300 300 300 300 299 299 299 299 298 298 297 296 295 293 291 289 287 285 283 280 278 276 273 272 270 267 263 259 258 257 257 257 257 256 255 254 253 252 252 251 251 251 250 251 251
304 304 304 304 304 304 304 303 303 302 301 300 299 298 297 296 295 295 296 296 297 297 298 298 299 299 300 300 300 300 301 301 301 301 301 301 301 301 301 301 301 301 301 301 301 301 300 300 299 299 298 297 295 293 291 289 287 284 281 279 277 275 273 271 270 267 263 259 257 256 255 255 255 255 255 254 252 251 250 250 250 249 249 249 250
307 307 306 306 306 305 305 305 305 304 304 303 302 301 300 300 300 300 300 300 300 301 301 301 301 302 302 302 302 302 302 302 302 302 303 303 303 303 303 303 303 303 303 303 302 302 302 301 301 300 298 297 295 293 291 289 286 283 280 278 276 275 273 272 270 267 263 259 256 255 254 253 253 252 253 252 251 249 248 248 248 248 248 249 249
309 308 308 307 307 307 307 307 306 306 306 306 305 305 305 304 304 304 303 303 303 303 303 304 304 304 304 303 304 304 304 304 304 304 304 304 304 304 305 305 305 305 304 304 303 303 303 302 301 300 298 297 296 294 292 289 286 283 280 277 275 274 273 271 269 266 262 258 255 253 252 252 251 250 250 250 249 248 247 247 247 248 248 248 249
312 312 311 310 309 309 309 309 309 309 309 309 308 308 307 306 306 306 306 306 306 306 306 306 306 306 305 305 305 305 305 305 305 305 305 305 306 306 306 306 306 306 305 305 304 305 304 303 301 300 299 298 297 295 293 289 286 282 280 277 276 275 273 271 269 266 262 258 253 250 250 250 249 248 248 248 248 246 245 246 246 247 247 247 248
317 316 315 314 313 313 313 312 312 312 311 310 309 308 308 308 308 308 308 308 308 308 308 308 308 307 307 307 307 307 306 306 307 307 307 307 307 307 307 307 307 306 306 305 305 306 305 303 302 301 300 299 297 296 293 289 285 283 281 279 278 276 275 272 269 265 260 256 250 248 248 248 247 246 247 247 247 245 244 244 244 245 245 245 244
320 319 317 316 316 315 315 314 313 313 312 312 311 311 311 311 311 311 311 310 310 310 310 309 309 309 309 308 308 308 308 308 308 308 308 308 309 309 309 308 308 307 306 306 306 306 305 305 304 302 301 300 299 297 293 288 285 284 282 281 279 278 276 273 269 263 257 252 247 246 247 247 246 246 246 246 246 244 242 242 242 242 242 241 240
319 319 318 317 317 316 315 315 315 314 314 314 314 314 313 313 313 313 312 312 311 311 310 310 310 310 310 309 309 309 309 309 310 310 310 310 310 310 309 309 308 308 308 308 308 308 307 306 305 303 302 302 300 298 294 289 285 284 283 282 281 279 276 273 268 260 253 247 244 245 246 246 245 245 245 244 243 242 239 238 238 238 237 237 237
321 320 320 319 318 317 317 317 317 316 316 316 316 315 315 314 314 313 313 312 312 311 311 311 311 311 311 311 311 311 311 311 311 311 312 311 311 311 310 309 309 310 311 311 310 309 309 308 306 305 304 304 302 300 295 290 286 285 284 283 282 279 276 271 264 256 249 245 245 245 245 244 243 243 242 241 240 239 236 233 233 233 232 233 234
323 322 322 321 320 319 319 318 318 318 318 317 317 316 315 315 314 314 314 313 313 313 312 313 313 313 313 313 313 312 312 313 313 313 313 313 313 312 311 310 311 313 313 312 311 311 311 310 308 307 306 306 304 301 298 292 288 287 286 285 282 279 274 267 260 253 248 246 246 245 244 243 242 242 241 239 237 235 232 228 228 228 228 230 232
324 323 323 322 322 321 321 320 320 319 319 318 317 317 316 315 315 315 315 315 315 314 314 315 315 315 315 315 315 315 315 315 315 315 315 314 314 312 311 312 314 316 316 314 313 313 313 312 310 308 307 306 305 303 300 296 291 290 289 286 282 276 270 262 256 252 248 246 245 242 241 240 241 241 240 237 234 232 228 225 224 225 226 228 228
325 324 324 323 323 322 322 321 320 319 318 318 317 317 317 316 316 316 316 316 316 316 317 317 317 317 316 316 317 317 317 317 316 316 316 316 314 313 313 315 317 318 318 316 314 314 314 313 311 309 307 307 306 304 301 297 294 292 289 285 279 273 266 259 253 249 246 242 240 238 237 238 238 238 237 234 232 230 226 221 220 222 225 225 224
325 324 324 324 323 322 322 321 320 319 318 317 317 318 318 317 318 318 318 318 318 319 318 318 318 318 318 318 319 319 318 318 318 318 317 317 316 314 315 317 319 320 319 317 315 315 315 313 312 310 308 307 305 303 301 298 295 292 287 281 276 271 264 256 249 244 239 236 235 234 234 234 234 234 234 233 230 227 222 219 219 221 223 224 223
325 324 324 324 323 322 322 321 320 319 319 319 319 319 319 319 319 319 319 320 320 320 319 319 319 319 319 320 320 320 319 319 319 319 318 318 317 316 316 319 320 321 320 318 316 316 316 315 313 311 308 307 306 304 302 299 295 291 284 276 270 266 259 250 242 237 233 231 230 230 230 230 231 234 234 231 226 222 219 219 219 220 222 224 224
325 325 324 324 324 323 323 322 321 321 321 320 320 320 320 320 320 320 321 321 321 321 321 321 321 321 321 322 321 321 321 320 320 320 320 319 318 317 318 320 321 322 321 319 318 317 316 316 314 312 310 308 307 305 303 299 294 288 280 270 262 258 253 244 235 230 227 225 223 224 226 229 231 233 232 226 220 218 218 219 220 220 222 224 226
326 325 325 325 324 324 324 323 323 322 322 322 322 322 322 321 322 322 323 323 323 323 322 322 323 323 323 323 322 322 322 322 321 322 321 320 319 319 319 321 322 322 321 320 319 317 317 316 315 313 311 308 306 305 302 298 292 284 275 263 253 247 244 237 229 223 220 219 219 222 226 230 232 231 227 220 216 216 217 218 219 221 223 226 227
326 326 326 326 325 325 325 324 324 324 324 323 323 323 323 323 323 324 324 325 324 324 324 324 324 324 324 324 324 324 323 323 323 323 323 321 320 320 320 321 322 322 322 321 319 316 316 316 314 312 310 307 305 304 301 295 288 280 271 258 245 236 233 229 223 218 216 216 218 222 226 229 230 228 222 216 214 215 216 217 218 221 224 226 227
327 327 327 326 326 326 326 325 325 325 325 325 325 325 325 325 325 326 326 326 326 325 325 325 326 325 325 325 325 325 324 325 325 325 325 324 322 321 321 322 322 322 323 323 323 320 318 318 317 314 311 308 305 303 300 294 285 276 266 255 241 228 223 222 218 214 214 216 219 222 225 227 227 223 218 214 213 214 216 217 219 222 224 225 224
328 328 328 328 327 327 327 327 327 327 327 327 327 327 327 327 327 327 327 327 327 326 326 326 326 326 326 326 326 326 326 326 327 327 327 326 324 323 323 323 323 323 323 324 326 325 322 322 322 320 316 312 308 303 297 290 284 274 263 252 240 225 216 215 216 214 214 216 219 222 224 225 224 220 216 214 214 215 216 218 221 222 223 222 221
329 329 329 329 328 328 328 328 328 328 328 328 328 328 328 328 328 328 328 328 327 327 327 327 327 327 327 327 328 327 327 328 328 328 328 327 326 325 325 324 323 323 323 324 326 326 324 322 322 322 321 317 313 307 298 286 278 270 259 248 239 228 216 212 213 214 214 216 219 221 222 222 221 217 214 213 213 215 217 220 222 222 222 221 220